Year,Month,Day,Hour,Minute,Value (Times are PST for temperature in C)
2019,03,18,00,00,6.90
2019,03,18,00,01,6.80
2019,03,18,00,02,6.80
2019,03,18,00,03,6.80
2019,03,18,00,04,6.70
2019,03,18,00,05,6.70
2019,03,18,00,06,6.70
2019,03,18,00,07,6.70
2019,03,18,00,08,6.70
2019,03,18,00,09,6.80
2019,03,18,00,10,6.80
2019,03,18,00,11,6.80
2019,03,18,00,12,6.80
2019,03,18,00,13,6.80
2019,03,18,00,14,6.90
2019,03,18,00,15,6.90
2019,03,18,00,16,6.90
2019,03,18,00,17,6.90
2019,03,18,00,18,6.90
2019,03,18,00,19,6.90
2019,03,18,00,20,6.90
2019,03,18,00,21,6.90
2019,03,18,00,22,6.90
2019,03,18,00,23,6.90
2019,03,18,00,24,6.90
2019,03,18,00,25,6.80
2019,03,18,00,26,6.80
2019,03,18,00,27,6.70
2019,03,18,00,28,6.70
2019,03,18,00,29,6.60
2019,03,18,00,30,6.60
2019,03,18,00,31,6.60
2019,03,18,00,32,6.60
2019,03,18,00,33,6.50
2019,03,18,00,34,6.50
2019,03,18,00,35,6.50
2019,03,18,00,36,6.50
2019,03,18,00,37,6.40
2019,03,18,00,38,6.40
2019,03,18,00,39,6.40
2019,03,18,00,40,6.40
2019,03,18,00,41,6.30
2019,03,18,00,42,6.30
2019,03,18,00,43,6.30
2019,03,18,00,44,6.30
2019,03,18,00,45,6.30
2019,03,18,00,46,6.30
2019,03,18,00,47,6.30
2019,03,18,00,48,6.30
2019,03,18,00,49,6.20
2019,03,18,00,50,6.20
2019,03,18,00,51,6.20
2019,03,18,00,52,6.20
2019,03,18,00,53,6.10
2019,03,18,00,54,6.10
2019,03,18,00,55,6.10
2019,03,18,00,56,6.10
2019,03,18,00,57,6.00
2019,03,18,00,58,6.00
2019,03,18,00,59,6.00
2019,03,18,01,00,5.90
2019,03,18,01,01,5.90
2019,03,18,01,02,5.90
2019,03,18,01,03,5.80
2019,03,18,01,04,5.80
2019,03,18,01,05,5.80
2019,03,18,01,06,5.80
2019,03,18,01,07,5.70
2019,03,18,01,08,5.70
2019,03,18,01,09,5.70
2019,03,18,01,10,5.70
2019,03,18,01,11,5.70
2019,03,18,01,12,5.60
2019,03,18,01,13,5.60
2019,03,18,01,14,5.60
2019,03,18,01,15,5.50
2019,03,18,01,16,5.50
2019,03,18,01,17,5.50
2019,03,18,01,18,5.50
2019,03,18,01,19,5.40
2019,03,18,01,20,5.40
2019,03,18,01,21,5.40
2019,03,18,01,22,5.40
2019,03,18,01,23,5.50
2019,03,18,01,24,5.50
2019,03,18,01,25,5.60
2019,03,18,01,26,5.60
2019,03,18,01,27,5.70
2019,03,18,01,28,5.70
2019,03,18,01,29,5.70
2019,03,18,01,30,5.70
2019,03,18,01,31,5.70
2019,03,18,01,32,5.70
2019,03,18,01,33,5.70
2019,03,18,01,34,5.70
2019,03,18,01,35,5.70
2019,03,18,01,36,5.70
2019,03,18,01,37,5.60
2019,03,18,01,38,5.60
2019,03,18,01,39,5.60
2019,03,18,01,40,5.60
2019,03,18,01,41,5.50
2019,03,18,01,42,5.50
2019,03,18,01,43,5.50
2019,03,18,01,44,5.40
2019,03,18,01,45,5.40
2019,03,18,01,46,5.40
2019,03,18,01,47,5.40
2019,03,18,01,48,5.40
2019,03,18,01,49,5.50
2019,03,18,01,50,5.60
2019,03,18,01,51,5.70
2019,03,18,01,52,5.70
2019,03,18,01,53,5.80
2019,03,18,01,54,5.90
2019,03,18,01,55,6.00
2019,03,18,01,56,6.30
2019,03,18,01,57,6.40
2019,03,18,01,58,6.60
2019,03,18,01,59,6.70
2019,03,18,02,00,6.90
2019,03,18,02,01,7.10
2019,03,18,02,02,7.20
2019,03,18,02,03,7.30
2019,03,18,02,04,7.40
2019,03,18,02,05,7.50
2019,03,18,02,06,7.60
2019,03,18,02,07,7.70
2019,03,18,02,08,7.70
2019,03,18,02,09,7.70
2019,03,18,02,10,7.70
2019,03,18,02,11,7.70
2019,03,18,02,12,7.60
2019,03,18,02,13,7.50
2019,03,18,02,14,7.40
2019,03,18,02,15,7.30
2019,03,18,02,16,7.20
2019,03,18,02,17,7.10
2019,03,18,02,18,7.00
2019,03,18,02,19,7.00
2019,03,18,02,20,6.80
2019,03,18,02,21,6.80
2019,03,18,02,22,6.70
2019,03,18,02,23,6.60
2019,03,18,02,24,6.60
2019,03,18,02,25,6.60
2019,03,18,02,26,6.60
2019,03,18,02,27,6.70
2019,03,18,02,28,6.70
2019,03,18,02,29,6.70
2019,03,18,02,30,6.80
2019,03,18,02,31,6.90
2019,03,18,02,32,7.00
2019,03,18,02,33,7.10
2019,03,18,02,34,7.20
2019,03,18,02,35,7.20
2019,03,18,02,36,7.30
2019,03,18,02,37,7.30
2019,03,18,02,38,7.40
2019,03,18,02,39,7.40
2019,03,18,02,40,7.40
2019,03,18,02,41,7.50
2019,03,18,02,42,7.50
2019,03,18,02,43,7.50
2019,03,18,02,44,7.50
2019,03,18,02,45,7.50
2019,03,18,02,46,7.60
2019,03,18,02,47,7.60
2019,03,18,02,48,7.50
2019,03,18,02,49,7.50
2019,03,18,02,50,7.50
2019,03,18,02,51,7.60
2019,03,18,02,52,7.60
2019,03,18,02,53,7.50
2019,03,18,02,54,7.50
2019,03,18,02,55,7.40
2019,03,18,02,56,7.40
2019,03,18,02,57,7.40
2019,03,18,02,58,7.40
2019,03,18,02,59,7.40
2019,03,18,03,00,7.30
2019,03,18,03,01,7.30
2019,03,18,03,02,7.30
2019,03,18,03,03,7.30
2019,03,18,03,04,7.20
2019,03,18,03,05,7.20
2019,03,18,03,06,7.20
2019,03,18,03,07,7.20
2019,03,18,03,08,7.20
2019,03,18,03,09,7.20
2019,03,18,03,10,7.20
2019,03,18,03,11,7.20
2019,03,18,03,12,7.10
2019,03,18,03,13,7.10
2019,03,18,03,14,7.10
2019,03,18,03,15,7.00
2019,03,18,03,16,7.00
2019,03,18,03,17,7.00
2019,03,18,03,18,7.00
2019,03,18,03,19,7.00
2019,03,18,03,20,7.00
2019,03,18,03,21,7.00
2019,03,18,03,22,7.00
2019,03,18,03,23,7.00
2019,03,18,03,24,7.00
2019,03,18,03,25,7.10
2019,03,18,03,26,7.10
2019,03,18,03,27,7.10
2019,03,18,03,28,7.10
2019,03,18,03,29,7.20
2019,03,18,03,30,7.20
2019,03,18,03,31,7.30
2019,03,18,03,32,7.30
2019,03,18,03,33,7.30
2019,03,18,03,34,7.40
2019,03,18,03,35,7.50
2019,03,18,03,36,7.60
2019,03,18,03,37,7.70
2019,03,18,03,38,7.80
2019,03,18,03,39,7.90
2019,03,18,03,40,8.10
2019,03,18,03,41,8.20
2019,03,18,03,42,8.20
2019,03,18,03,43,8.30
2019,03,18,03,44,8.40
2019,03,18,03,45,8.50
2019,03,18,03,46,8.50
2019,03,18,03,47,8.60
2019,03,18,03,48,8.60
2019,03,18,03,49,8.70
2019,03,18,03,50,8.70
2019,03,18,03,51,8.80
2019,03,18,03,52,8.80
2019,03,18,03,53,8.90
2019,03,18,03,54,9.00
2019,03,18,03,55,9.00
2019,03,18,03,56,9.10
2019,03,18,03,57,9.10
2019,03,18,03,58,9.20
2019,03,18,03,59,9.30
2019,03,18,04,00,9.30
2019,03,18,04,01,9.40
2019,03,18,04,02,9.40
2019,03,18,04,03,9.30
2019,03,18,04,04,9.20
2019,03,18,04,05,9.20
2019,03,18,04,06,9.20
2019,03,18,04,07,9.20
2019,03,18,04,08,9.20
2019,03,18,04,09,9.30
2019,03,18,04,10,9.30
2019,03,18,04,11,9.20
2019,03,18,04,12,9.20
2019,03,18,04,13,8.90
2019,03,18,04,14,8.70
2019,03,18,04,15,8.60
2019,03,18,04,16,8.40
2019,03,18,04,17,8.30
2019,03,18,04,18,8.30
2019,03,18,04,19,8.30
2019,03,18,04,20,8.30
2019,03,18,04,21,8.30
2019,03,18,04,22,8.20
2019,03,18,04,23,8.20
2019,03,18,04,24,8.10
2019,03,18,04,25,8.10
2019,03,18,04,26,8.10
2019,03,18,04,27,8.20
2019,03,18,04,28,8.10
2019,03,18,04,29,8.10
2019,03,18,04,30,8.10
2019,03,18,04,31,8.10
2019,03,18,04,32,8.10
2019,03,18,04,33,8.20
2019,03,18,04,34,8.30
2019,03,18,04,35,8.30
2019,03,18,04,36,8.40
2019,03,18,04,37,8.50
2019,03,18,04,38,8.50
2019,03,18,04,39,8.60
2019,03,18,04,40,8.60
2019,03,18,04,41,8.60
2019,03,18,04,42,8.70
2019,03,18,04,43,8.70
2019,03,18,04,44,8.70
2019,03,18,04,45,8.70
2019,03,18,04,46,8.70
2019,03,18,04,47,8.70
2019,03,18,04,48,8.70
2019,03,18,04,49,8.70
2019,03,18,04,50,8.80
2019,03,18,04,51,8.80
2019,03,18,04,52,8.80
2019,03,18,04,53,8.80
2019,03,18,04,54,8.80
2019,03,18,04,55,8.80
2019,03,18,04,56,8.70
2019,03,18,04,57,8.70
2019,03,18,04,58,8.70
2019,03,18,04,59,8.80
2019,03,18,05,00,8.80
2019,03,18,05,01,8.80
2019,03,18,05,02,8.80
2019,03,18,05,03,8.80
2019,03,18,05,04,8.80
2019,03,18,05,05,8.90
2019,03,18,05,06,8.90
2019,03,18,05,07,8.90
2019,03,18,05,08,8.90
2019,03,18,05,09,9.00
2019,03,18,05,10,9.00
2019,03,18,05,11,9.10
2019,03,18,05,12,9.10
2019,03,18,05,13,9.10
2019,03,18,05,14,9.10
2019,03,18,05,15,9.10
2019,03,18,05,16,9.10
2019,03,18,05,17,9.10
2019,03,18,05,18,9.20
2019,03,18,05,19,9.20
2019,03,18,05,20,9.20
2019,03,18,05,21,9.30
2019,03,18,05,22,9.40
2019,03,18,05,23,9.50
2019,03,18,05,24,9.60
2019,03,18,05,25,9.60
2019,03,18,05,26,9.70
2019,03,18,05,27,9.70
2019,03,18,05,28,9.70
2019,03,18,05,29,9.70
2019,03,18,05,30,9.70
2019,03,18,05,31,9.70
2019,03,18,05,32,9.70
2019,03,18,05,33,9.60
2019,03,18,05,34,9.60
2019,03,18,05,35,9.50
2019,03,18,05,36,9.50
2019,03,18,05,37,9.50
2019,03,18,05,38,9.60
2019,03,18,05,39,9.60
2019,03,18,05,40,9.60
2019,03,18,05,41,9.50
2019,03,18,05,42,9.50
2019,03,18,05,43,9.50
2019,03,18,05,44,9.50
2019,03,18,05,45,9.50
2019,03,18,05,46,9.50
2019,03,18,05,47,9.50
2019,03,18,05,48,9.50
2019,03,18,05,49,9.50
2019,03,18,05,50,9.50
2019,03,18,05,51,9.50
2019,03,18,05,52,9.50
2019,03,18,05,53,9.50
2019,03,18,05,54,9.60
2019,03,18,05,55,9.60
2019,03,18,05,56,9.60
2019,03,18,05,57,9.60
2019,03,18,05,58,9.60
2019,03,18,05,59,9.70
2019,03,18,06,00,9.70
2019,03,18,06,01,9.60
2019,03,18,06,02,9.60
2019,03,18,06,03,9.50
2019,03,18,06,04,9.40
2019,03,18,06,05,9.30
2019,03,18,06,06,9.20
2019,03,18,06,07,9.00
2019,03,18,06,08,8.90
2019,03,18,06,09,8.80
2019,03,18,06,10,8.70
2019,03,18,06,11,8.60
2019,03,18,06,12,8.50
2019,03,18,06,13,8.40
2019,03,18,06,14,8.30
2019,03,18,06,15,8.20
2019,03,18,06,16,8.20
2019,03,18,06,17,8.10
2019,03,18,06,18,8.10
2019,03,18,06,19,8.10
2019,03,18,06,20,8.10
2019,03,18,06,21,8.10
2019,03,18,06,22,8.10
2019,03,18,06,23,8.10
2019,03,18,06,24,8.00
2019,03,18,06,25,8.00
2019,03,18,06,26,8.00
2019,03,18,06,27,8.00
2019,03,18,06,28,8.00
2019,03,18,06,29,8.00
2019,03,18,06,30,8.00
2019,03,18,06,31,8.00
2019,03,18,06,32,8.00
2019,03,18,06,33,8.00
2019,03,18,06,34,7.90
2019,03,18,06,35,7.90
2019,03,18,06,36,7.90
2019,03,18,06,37,7.90
2019,03,18,06,38,7.90
2019,03,18,06,39,7.90
2019,03,18,06,40,7.90
2019,03,18,06,41,7.80
2019,03,18,06,42,7.80
2019,03,18,06,43,7.80
2019,03,18,06,44,7.80
2019,03,18,06,45,7.80
2019,03,18,06,46,7.80
2019,03,18,06,47,7.70
2019,03,18,06,48,7.70
2019,03,18,06,49,7.70
2019,03,18,06,50,7.70
2019,03,18,06,51,7.70
2019,03,18,06,52,7.70
2019,03,18,06,53,7.70
2019,03,18,06,54,7.70
2019,03,18,06,55,7.70
2019,03,18,06,56,7.70
2019,03,18,06,57,7.70
2019,03,18,06,58,7.70
2019,03,18,06,59,7.70
2019,03,18,07,00,7.80
2019,03,18,07,01,7.80
2019,03,18,07,02,7.90
2019,03,18,07,03,7.90
2019,03,18,07,04,8.00
2019,03,18,07,05,8.10
2019,03,18,07,06,8.10
2019,03,18,07,07,8.20
2019,03,18,07,08,8.20
2019,03,18,07,09,8.20
2019,03,18,07,10,8.20
2019,03,18,07,11,8.20
2019,03,18,07,12,8.20
2019,03,18,07,13,8.20
2019,03,18,07,14,8.20
2019,03,18,07,15,8.20
2019,03,18,07,16,8.20
2019,03,18,07,17,8.20
2019,03,18,07,18,8.10
2019,03,18,07,19,8.10
2019,03,18,07,20,8.10
2019,03,18,07,21,8.00
2019,03,18,07,22,8.00
2019,03,18,07,23,7.90
2019,03,18,07,24,7.90
2019,03,18,07,25,7.90
2019,03,18,07,26,7.80
2019,03,18,07,27,7.80
2019,03,18,07,28,7.80
2019,03,18,07,29,7.80
2019,03,18,07,30,7.80
2019,03,18,07,31,7.80
2019,03,18,07,32,7.80
2019,03,18,07,33,7.90
2019,03,18,07,34,7.90
2019,03,18,07,35,7.90
2019,03,18,07,36,7.90
2019,03,18,07,37,7.90
2019,03,18,07,38,7.90
2019,03,18,07,39,7.90
2019,03,18,07,40,7.90
2019,03,18,07,41,7.80
2019,03,18,07,42,7.70
2019,03,18,07,43,7.50
2019,03,18,07,44,7.40
2019,03,18,07,45,7.30
2019,03,18,07,46,7.30
2019,03,18,07,47,7.20
2019,03,18,07,48,7.10
2019,03,18,07,49,7.00
2019,03,18,07,50,7.00
2019,03,18,07,51,6.90
2019,03,18,07,52,6.80
2019,03,18,07,53,6.80
2019,03,18,07,54,6.80
2019,03,18,07,55,6.80
2019,03,18,07,56,6.80
2019,03,18,07,57,6.80
2019,03,18,07,58,6.80
2019,03,18,07,59,6.90
2019,03,18,08,00,6.90
2019,03,18,08,01,7.00
2019,03,18,08,02,7.00
2019,03,18,08,03,7.00
2019,03,18,08,04,7.10
2019,03,18,08,05,7.20
2019,03,18,08,06,7.20
2019,03,18,08,07,7.20
2019,03,18,08,08,7.30
2019,03,18,08,09,7.30
2019,03,18,08,10,7.40
2019,03,18,08,11,7.50
2019,03,18,08,12,7.50
2019,03,18,08,13,7.60
2019,03,18,08,14,7.70
2019,03,18,08,15,7.70
2019,03,18,08,16,7.80
2019,03,18,08,17,7.80
2019,03,18,08,18,7.80
2019,03,18,08,19,7.80
2019,03,18,08,20,7.90
2019,03,18,08,21,7.90
2019,03,18,08,22,8.00
2019,03,18,08,23,8.00
2019,03,18,08,24,8.00
2019,03,18,08,25,8.10
2019,03,18,08,26,8.10
2019,03,18,08,27,8.20
2019,03,18,08,28,8.20
2019,03,18,08,29,8.20
2019,03,18,08,30,8.20
2019,03,18,08,31,8.30
2019,03,18,08,32,8.30
2019,03,18,08,33,8.30
2019,03,18,08,34,8.40
2019,03,18,08,35,8.40
2019,03,18,08,36,8.50
2019,03,18,08,37,8.50
2019,03,18,08,38,8.60
2019,03,18,08,39,8.70
2019,03,18,08,40,8.80
2019,03,18,08,41,8.90
2019,03,18,08,42,9.00
2019,03,18,08,43,9.10
2019,03,18,08,44,9.20
2019,03,18,08,45,9.20
2019,03,18,08,46,9.30
2019,03,18,08,47,9.30
2019,03,18,08,48,9.30
2019,03,18,08,49,9.40
2019,03,18,08,50,9.40
2019,03,18,08,51,9.40
2019,03,18,08,52,9.50
2019,03,18,08,53,9.50
2019,03,18,08,54,9.60
2019,03,18,08,55,9.60
2019,03,18,08,56,9.70
2019,03,18,08,57,9.70
2019,03,18,08,58,9.80
2019,03,18,08,59,9.90
2019,03,18,09,00,10.00
2019,03,18,09,01,10.10
2019,03,18,09,02,10.20
2019,03,18,09,03,10.30
2019,03,18,09,04,10.50
2019,03,18,09,05,10.60
2019,03,18,09,06,10.70
2019,03,18,09,07,10.80
2019,03,18,09,08,10.90
2019,03,18,09,09,11.00
2019,03,18,09,10,11.10
2019,03,18,09,11,11.10
2019,03,18,09,12,11.20
2019,03,18,09,13,11.30
2019,03,18,09,14,11.30
2019,03,18,09,15,11.40
2019,03,18,09,16,11.50
2019,03,18,09,17,11.60
2019,03,18,09,18,11.70
2019,03,18,09,19,11.70
2019,03,18,09,20,11.80
2019,03,18,09,21,11.80
2019,03,18,09,22,11.90
2019,03,18,09,23,12.00
2019,03,18,09,24,12.10
2019,03,18,09,25,12.20
2019,03,18,09,26,12.20
2019,03,18,09,27,12.30
2019,03,18,09,28,12.40
2019,03,18,09,29,12.50
2019,03,18,09,30,12.60
2019,03,18,09,31,12.60
2019,03,18,09,32,12.70
2019,03,18,09,33,12.70
2019,03,18,09,34,12.70
2019,03,18,09,35,12.70
2019,03,18,09,36,12.70
2019,03,18,09,37,12.80
2019,03,18,09,38,12.80
2019,03,18,09,39,12.80
2019,03,18,09,40,12.90
2019,03,18,09,41,12.90
2019,03,18,09,42,12.90
2019,03,18,09,43,12.90
2019,03,18,09,44,12.90
2019,03,18,09,45,12.90
2019,03,18,09,46,13.00
2019,03,18,09,47,13.00
2019,03,18,09,48,13.10
2019,03,18,09,49,13.10
2019,03,18,09,50,13.10
2019,03,18,09,51,13.10
2019,03,18,09,52,13.10
2019,03,18,09,53,13.10
2019,03,18,09,54,13.10
2019,03,18,09,55,13.20
2019,03,18,09,56,13.20
2019,03,18,09,57,13.20
2019,03,18,09,58,13.20
2019,03,18,09,59,13.20
2019,03,18,10,00,13.20
2019,03,18,10,01,13.20
2019,03,18,10,02,13.30
2019,03,18,10,03,13.30
2019,03,18,10,04,13.30
2019,03,18,10,05,13.40
2019,03,18,10,06,13.30
2019,03,18,10,07,13.30
2019,03,18,10,08,13.30
2019,03,18,10,09,13.40
2019,03,18,10,10,13.40
2019,03,18,10,11,13.30
2019,03,18,10,12,13.30
2019,03,18,10,13,13.30
2019,03,18,10,14,13.30
2019,03,18,10,15,13.30
2019,03,18,10,16,13.30
2019,03,18,10,17,13.30
2019,03,18,10,18,13.30
2019,03,18,10,19,13.30
2019,03,18,10,20,13.30
2019,03,18,10,21,13.30
2019,03,18,10,22,13.30
2019,03,18,10,23,13.20
2019,03,18,10,24,13.30
2019,03,18,10,25,13.30
2019,03,18,10,26,13.30
2019,03,18,10,27,13.20
2019,03,18,10,28,13.20
2019,03,18,10,29,13.30
2019,03,18,10,30,13.30
2019,03,18,10,31,13.40
2019,03,18,10,32,13.40
2019,03,18,10,33,13.40
2019,03,18,10,34,13.40
2019,03,18,10,35,13.30
2019,03,18,10,36,13.30
2019,03,18,10,37,13.40
2019,03,18,10,38,13.50
2019,03,18,10,39,13.60
2019,03,18,10,40,13.60
2019,03,18,10,41,13.60
2019,03,18,10,42,13.60
2019,03,18,10,43,13.70
2019,03,18,10,44,13.70
2019,03,18,10,45,13.70
2019,03,18,10,46,13.80
2019,03,18,10,47,13.80
2019,03,18,10,48,13.70
2019,03,18,10,49,13.70
2019,03,18,10,50,13.80
2019,03,18,10,51,13.80
2019,03,18,10,52,13.80
2019,03,18,10,53,13.90
2019,03,18,10,54,13.90
2019,03,18,10,55,14.00
2019,03,18,10,56,14.00
2019,03,18,10,57,14.00
2019,03,18,10,58,14.00
2019,03,18,10,59,14.10
2019,03,18,11,00,14.10
2019,03,18,11,01,14.10
2019,03,18,11,02,14.10
2019,03,18,11,03,14.20
2019,03,18,11,04,14.20
2019,03,18,11,05,14.20
2019,03,18,11,06,14.20
2019,03,18,11,07,14.20
2019,03,18,11,08,14.20
2019,03,18,11,09,14.20
2019,03,18,11,10,14.30
2019,03,18,11,11,14.30
2019,03,18,11,12,14.40
2019,03,18,11,13,14.40
2019,03,18,11,14,14.50
2019,03,18,11,15,14.50
2019,03,18,11,16,14.60
2019,03,18,11,17,14.60
2019,03,18,11,18,14.60
2019,03,18,11,19,14.70
2019,03,18,11,20,14.70
2019,03,18,11,21,14.70
2019,03,18,11,22,14.70
2019,03,18,11,23,14.70
2019,03,18,11,24,14.70
2019,03,18,11,25,14.60
2019,03,18,11,26,14.60
2019,03,18,11,27,14.60
2019,03,18,11,28,14.70
2019,03,18,11,29,14.60
2019,03,18,11,30,14.60
2019,03,18,11,31,14.60
2019,03,18,11,32,14.60
2019,03,18,11,33,14.60
2019,03,18,11,34,14.70
2019,03,18,11,35,14.70
2019,03,18,11,36,14.70
2019,03,18,11,37,14.70
2019,03,18,11,38,14.70
2019,03,18,11,39,14.60
2019,03,18,11,40,14.60
2019,03,18,11,41,14.50
2019,03,18,11,42,14.50
2019,03,18,11,43,14.40
2019,03,18,11,44,14.30
2019,03,18,11,45,14.30
2019,03,18,11,46,14.30
2019,03,18,11,47,14.40
2019,03,18,11,48,14.50
2019,03,18,11,49,14.60
2019,03,18,11,50,14.70
2019,03,18,11,51,14.80
2019,03,18,11,52,14.80
2019,03,18,11,53,14.70
2019,03,18,11,54,14.50
2019,03,18,11,55,14.50
2019,03,18,11,56,14.40
2019,03,18,11,57,14.50
2019,03,18,11,58,14.60
2019,03,18,11,59,14.60
2019,03,18,12,00,14.60
2019,03,18,12,01,14.60
2019,03,18,12,02,14.60
2019,03,18,12,03,14.60
2019,03,18,12,04,14.60
2019,03,18,12,05,14.60
2019,03,18,12,06,14.70
2019,03,18,12,07,14.80
2019,03,18,12,08,14.80
2019,03,18,12,09,14.80
2019,03,18,12,10,14.80
2019,03,18,12,11,14.80
2019,03,18,12,12,14.80
2019,03,18,12,13,14.80
2019,03,18,12,14,14.80
2019,03,18,12,15,14.80
2019,03,18,12,16,14.80
2019,03,18,12,17,14.80
2019,03,18,12,18,14.80
2019,03,18,12,19,14.90
2019,03,18,12,20,14.90
2019,03,18,12,21,14.90
2019,03,18,12,22,15.00
2019,03,18,12,23,15.00
2019,03,18,12,24,15.00
2019,03,18,12,25,15.00
2019,03,18,12,26,15.10
2019,03,18,12,27,15.20
2019,03,18,12,28,15.40
2019,03,18,12,29,15.50
2019,03,18,12,30,15.50
2019,03,18,12,31,15.40
2019,03,18,12,32,15.40
2019,03,18,12,33,15.50
2019,03,18,12,34,15.60
2019,03,18,12,35,15.70
2019,03,18,12,36,15.70
2019,03,18,12,37,15.80
2019,03,18,12,38,15.80
2019,03,18,12,39,15.90
2019,03,18,12,40,16.00
2019,03,18,12,41,16.00
2019,03,18,12,42,16.00
2019,03,18,12,43,16.00
2019,03,18,12,44,16.00
2019,03,18,12,45,16.00
2019,03,18,12,46,15.90
2019,03,18,12,47,16.00
2019,03,18,12,48,16.10
2019,03,18,12,49,16.10
2019,03,18,12,50,16.20
2019,03,18,12,51,16.20
2019,03,18,12,52,16.20
2019,03,18,12,53,16.30
2019,03,18,12,54,16.30
2019,03,18,12,55,16.40
2019,03,18,12,56,16.40
2019,03,18,12,57,16.40
2019,03,18,12,58,16.40
2019,03,18,12,59,16.30
2019,03,18,13,00,16.40
2019,03,18,13,01,16.40
2019,03,18,13,02,16.50
2019,03,18,13,03,16.50
2019,03,18,13,04,16.50
2019,03,18,13,05,16.50
2019,03,18,13,06,16.60
2019,03,18,13,07,16.70
2019,03,18,13,08,16.70
2019,03,18,13,09,16.70
2019,03,18,13,10,16.70
2019,03,18,13,11,16.80
2019,03,18,13,12,16.80
2019,03,18,13,13,16.80
2019,03,18,13,14,16.80
2019,03,18,13,15,16.70
2019,03,18,13,16,16.80
2019,03,18,13,17,16.80
2019,03,18,13,18,16.70
2019,03,18,13,19,16.70
2019,03,18,13,20,16.60
2019,03,18,13,21,16.50
2019,03,18,13,22,16.40
2019,03,18,13,23,16.30
2019,03,18,13,24,16.30
2019,03,18,13,25,16.40
2019,03,18,13,26,16.50
2019,03,18,13,27,16.60
2019,03,18,13,28,16.60
2019,03,18,13,29,16.50
2019,03,18,13,30,16.50
2019,03,18,13,31,16.50
2019,03,18,13,32,16.50
2019,03,18,13,33,16.50
2019,03,18,13,34,16.60
2019,03,18,13,35,16.80
2019,03,18,13,36,16.80
2019,03,18,13,37,16.80
2019,03,18,13,38,16.80
2019,03,18,13,39,16.90
2019,03,18,13,40,17.00
2019,03,18,13,41,17.10
2019,03,18,13,42,17.20
2019,03,18,13,43,17.10
2019,03,18,13,44,17.10
2019,03,18,13,45,17.00
2019,03,18,13,46,17.00
2019,03,18,13,47,16.90
2019,03,18,13,48,16.90
2019,03,18,13,49,17.00
2019,03,18,13,50,17.00
2019,03,18,13,51,17.10
2019,03,18,13,52,17.10
2019,03,18,13,53,17.10
2019,03,18,13,54,17.10
2019,03,18,13,55,17.10
2019,03,18,13,56,17.20
2019,03,18,13,57,17.20
2019,03,18,13,58,17.20
2019,03,18,13,59,17.20
2019,03,18,14,00,17.20
2019,03,18,14,01,17.20
2019,03,18,14,02,17.20
2019,03,18,14,03,17.30
2019,03,18,14,04,17.40
2019,03,18,14,05,17.40
2019,03,18,14,06,17.40
2019,03,18,14,07,17.50
2019,03,18,14,08,17.60
2019,03,18,14,09,17.70
2019,03,18,14,10,17.80
2019,03,18,14,11,17.80
2019,03,18,14,12,17.90
2019,03,18,14,13,18.00
2019,03,18,14,14,17.90
2019,03,18,14,15,17.90
2019,03,18,14,16,17.90
2019,03,18,14,17,17.90
2019,03,18,14,18,17.90
2019,03,18,14,19,18.00
2019,03,18,14,20,17.90
2019,03,18,14,21,17.90
2019,03,18,14,22,17.80
2019,03,18,14,23,17.80
2019,03,18,14,24,17.80
2019,03,18,14,25,17.80
2019,03,18,14,26,17.80
2019,03,18,14,27,17.80
2019,03,18,14,28,17.90
2019,03,18,14,29,17.90
2019,03,18,14,30,18.00
2019,03,18,14,31,18.00
2019,03,18,14,32,18.10
2019,03,18,14,33,18.20
2019,03,18,14,34,18.20
2019,03,18,14,35,18.20
2019,03,18,14,36,18.20
2019,03,18,14,37,18.20
2019,03,18,14,38,18.20
2019,03,18,14,39,18.20
2019,03,18,14,40,18.30
2019,03,18,14,41,18.40
2019,03,18,14,42,18.40
2019,03,18,14,43,18.30
2019,03,18,14,44,18.20
2019,03,18,14,45,18.20
2019,03,18,14,46,18.20
2019,03,18,14,47,18.20
2019,03,18,14,48,18.30
2019,03,18,14,49,18.40
2019,03,18,14,50,18.40
2019,03,18,14,51,18.50
2019,03,18,14,52,18.50
2019,03,18,14,53,18.50
2019,03,18,14,54,18.60
2019,03,18,14,55,18.60
2019,03,18,14,56,18.60
2019,03,18,14,57,18.60
2019,03,18,14,58,18.60
2019,03,18,14,59,18.50
2019,03,18,15,00,18.40
2019,03,18,15,01,18.40
2019,03,18,15,02,18.40
2019,03,18,15,03,18.40
2019,03,18,15,04,18.40
2019,03,18,15,05,18.30
2019,03,18,15,06,18.30
2019,03,18,15,07,18.30
2019,03,18,15,08,18.40
2019,03,18,15,09,18.40
2019,03,18,15,10,18.40
2019,03,18,15,11,18.40
2019,03,18,15,12,18.50
2019,03,18,15,13,18.50
2019,03,18,15,14,18.50
2019,03,18,15,15,18.60
2019,03,18,15,16,18.60
2019,03,18,15,17,18.70
2019,03,18,15,18,18.80
2019,03,18,15,19,18.90
2019,03,18,15,20,18.90
2019,03,18,15,21,19.00
2019,03,18,15,22,19.00
2019,03,18,15,23,19.10
2019,03,18,15,24,19.10
2019,03,18,15,25,19.10
2019,03,18,15,26,19.10
2019,03,18,15,27,19.20
2019,03,18,15,28,19.30
2019,03,18,15,29,19.30
2019,03,18,15,30,19.40
2019,03,18,15,31,19.50
2019,03,18,15,32,19.50
2019,03,18,15,33,19.60
2019,03,18,15,34,19.50
2019,03,18,15,35,19.50
2019,03,18,15,36,19.40
2019,03,18,15,37,19.40
2019,03,18,15,38,19.40
2019,03,18,15,39,19.40
2019,03,18,15,40,19.30
2019,03,18,15,41,19.20
2019,03,18,15,42,19.20
2019,03,18,15,43,19.30
2019,03,18,15,44,19.30
2019,03,18,15,45,19.30
2019,03,18,15,46,19.30
2019,03,18,15,47,19.30
2019,03,18,15,48,19.30
2019,03,18,15,49,19.30
2019,03,18,15,50,19.40
2019,03,18,15,51,19.40
2019,03,18,15,52,19.50
2019,03,18,15,53,19.60
2019,03,18,15,54,19.70
2019,03,18,15,55,19.80
2019,03,18,15,56,19.80
2019,03,18,15,57,19.80
2019,03,18,15,58,19.80
2019,03,18,15,59,19.80
2019,03,18,16,00,19.70
2019,03,18,16,01,19.70
2019,03,18,16,02,19.70
2019,03,18,16,03,19.80
2019,03,18,16,04,19.80
2019,03,18,16,05,19.80
2019,03,18,16,06,19.80
2019,03,18,16,07,19.80
2019,03,18,16,08,19.80
2019,03,18,16,09,19.70
2019,03,18,16,10,19.60
2019,03,18,16,11,19.60
2019,03,18,16,12,19.50
2019,03,18,16,13,19.50
2019,03,18,16,14,19.40
2019,03,18,16,15,19.40
2019,03,18,16,16,19.40
2019,03,18,16,17,19.40
2019,03,18,16,18,19.30
2019,03,18,16,19,19.30
2019,03,18,16,20,19.30
2019,03,18,16,21,19.30
2019,03,18,16,22,19.30
2019,03,18,16,23,19.30
2019,03,18,16,24,19.20
2019,03,18,16,25,19.20
2019,03,18,16,26,19.20
2019,03,18,16,27,19.20
2019,03,18,16,28,19.20
2019,03,18,16,29,19.30
2019,03,18,16,30,19.30
2019,03,18,16,31,19.30
2019,03,18,16,32,19.30
2019,03,18,16,33,19.30
2019,03,18,16,34,19.40
2019,03,18,16,35,19.40
2019,03,18,16,36,19.40
2019,03,18,16,37,19.40
2019,03,18,16,38,19.30
2019,03,18,16,39,19.30
2019,03,18,16,40,19.30
2019,03,18,16,41,19.20
2019,03,18,16,42,19.20
2019,03,18,16,43,19.20
2019,03,18,16,44,19.20
2019,03,18,16,45,19.20
2019,03,18,16,46,19.20
2019,03,18,16,47,19.20
2019,03,18,16,48,19.10
2019,03,18,16,49,19.10
2019,03,18,16,50,19.20
2019,03,18,16,51,19.20
2019,03,18,16,52,19.20
2019,03,18,16,53,19.20
2019,03,18,16,54,19.20
2019,03,18,16,55,19.20
2019,03,18,16,56,19.20
2019,03,18,16,57,19.30
2019,03,18,16,58,19.40
2019,03,18,16,59,19.40
2019,03,18,17,00,19.40
2019,03,18,17,01,19.40
2019,03,18,17,02,19.40
2019,03,18,17,03,19.40
2019,03,18,17,04,19.40
2019,03,18,17,05,19.40
2019,03,18,17,06,19.30
2019,03,18,17,07,19.30
2019,03,18,17,08,19.30
2019,03,18,17,09,19.30
2019,03,18,17,10,19.30
2019,03,18,17,11,19.20
2019,03,18,17,12,19.20
2019,03,18,17,13,19.20
2019,03,18,17,14,19.10
2019,03,18,17,15,19.10
2019,03,18,17,16,19.20
2019,03,18,17,17,19.20
2019,03,18,17,18,19.20
2019,03,18,17,19,19.30
2019,03,18,17,20,19.30
2019,03,18,17,21,19.30
2019,03,18,17,22,19.30
2019,03,18,17,23,19.30
2019,03,18,17,24,19.30
2019,03,18,17,25,19.30
2019,03,18,17,26,19.30
2019,03,18,17,27,19.20
2019,03,18,17,28,19.20
2019,03,18,17,29,19.20
2019,03,18,17,30,19.20
2019,03,18,17,31,19.20
2019,03,18,17,32,19.20
2019,03,18,17,33,19.10
2019,03,18,17,34,19.10
2019,03,18,17,35,19.10
2019,03,18,17,36,19.00
2019,03,18,17,37,18.90
2019,03,18,17,38,18.90
2019,03,18,17,39,18.90
2019,03,18,17,40,18.80
2019,03,18,17,41,18.80
2019,03,18,17,42,18.80